Sioux Falls, SD

5:55 PM CST on February 08, 2016 (GMT -0600)
Foss

Weather History for KFSD - August, 2012

Change the Weather History Date:

Wednesday, August 8, 2012

  Actual Average Record
Temperature  
Mean Temperature 75 °F 72 °F  
Max Temperature 86 °F 83 °F 100 °F (1995)
Min Temperature 63 °F 61 °F 44 °F (1932)
Degree Days  
Heating Degree Days 0 0  
Month to date heating degree days 0 0  
Since 1 June heating degree days 21 59  
Since 1 July heating degree days 0 8  
Cooling Degree Days 10 7  
Month to date cooling degree days 100 62  
Year to date cooling degree days 941 489  
Since 1 June cooling degree days 855 453  
Growing Degree Days 26 (Base 50)    
Moisture  
Dew Point 62 °F    
Average Humidity 69    
Maximum Humidity 94    
Minimum Humidity 35    
Precipitation  
Precipitation 0.25 in 0.09 in 2.02 in (1931)
Month to date precipitation 0.81 0.81  
Year to date precipitation 12.74 17.15  
Snow  
Snow 0.00 in 0.00 in 0.00 in ()
Month to date snowfall 0.0 0.0  
Since 1 June snowfall 0.0 0.0  
Since 1 July snowfall 0.0 0.0  
Snow Depth 0.00 in    
Sea Level Pressure  
Sea Level Pressure 29.96 in    
Wind  
Wind Speed 10 mph (ENE)    
Max Wind Speed 24 mph    
Max Gust Speed 30 mph    
Visibility 9 miles    
Events Rain , Thunderstorm    
T = Trace of Precipitation, MM = Missing Value Source: NWS Daily Summary

Daily Weather History Graph

Daily Weather History Graph

Search for Another Location

Airport or City:

Trip Planner

Search our weather history database for the weather conditions in past years. The results will help you decide how hot, cold, wet, or windy it might be!

Date:

Astronomy

Aug. 08, 2012 Rise Set
Actual Time 6:24 AM CDT 8:39 PM CDT
Civil Twilight 5:52 AM CDT 9:11 PM CDT
Nautical Twilight 5:13 AM CDT 9:50 PM CDT
Astronomical Twilight 4:29 AM CDT 10:33 PM CDT
Moon 11:39 PM CDT 1:26 PM CDT
Length of Visible Light 15h 18m
Length of Day
14h 15m
Waning Gibbous, 60% of the Moon is Illuminated
Aug 8
Waning Gibbous
Aug 9
Last Quarter
Aug 17
New
Aug 24
First Quarter
Aug 31
Full

Hourly Weather History & Observations

Time (CDT) Temp. Heat Index Dew Point Humidity Pressure Visibility Wind Dir Wind Speed Gust Speed Precip Events Conditions
12:56 AM 77.0 °F - 62.1 °F 60% 29.96 in 10.0 mi ESE 12.7 mph 19.6 mph 0.00 in   Clear
1:56 AM 75.9 °F - 62.1 °F 62% 29.95 in 10.0 mi SSE 12.7 mph - N/A   Clear
2:56 AM 75.0 °F - 62.1 °F 64% 29.91 in 10.0 mi SE 10.4 mph - N/A   Clear
3:56 AM 75.0 °F - 61.0 °F 62% 29.89 in 10.0 mi SSE 8.1 mph - N/A   Clear
4:56 AM 73.0 °F - 60.1 °F 64% 29.89 in 10.0 mi SSE 11.5 mph - N/A   Clear
5:23 AM 73.4 °F - 60.8 °F 65% 29.92 in 10.0 mi South 9.2 mph - N/A Thunderstorm Thunderstorm
5:56 AM 73.0 °F - 59.0 °F 61% 29.99 in 10.0 mi North 17.3 mph 28.8 mph N/A Thunderstorm Thunderstorm
6:47 AM 66.2 °F - 64.4 °F 94% 29.99 in 1.5 mi ENE 16.1 mph - 0.15 in Rain , Thunderstorm Light Thunderstorms and Rain
6:54 AM 66.2 °F - 64.4 °F 94% 29.99 in 5.0 mi NE 15.0 mph - 0.25 in Rain , Thunderstorm Light Thunderstorms and Rain
6:56 AM 66.9 °F - 64.0 °F 90% 29.96 in 5.0 mi NE 13.8 mph - 0.25 in Rain , Thunderstorm Light Thunderstorms and Rain
7:03 AM 66.2 °F - 62.6 °F 88% 29.97 in 10.0 mi NE 10.4 mph - 0.00 in Thunderstorm Thunderstorm
7:27 AM 66.2 °F - 62.6 °F 88% 29.95 in 10.0 mi ESE 8.1 mph - 0.00 in   Partly Cloudy
7:56 AM 68.0 °F - 63.0 °F 84% 29.93 in 10.0 mi Calm Calm - 0.00 in   Partly Cloudy
8:56 AM 73.0 °F - 62.1 °F 68% 29.98 in 10.0 mi North 13.8 mph - N/A   Mostly Cloudy
9:37 AM 71.6 °F - 60.8 °F 69% 29.98 in 10.0 mi East 6.9 mph - 0.00 in Thunderstorm Thunderstorm
9:56 AM 72.0 °F - 60.1 °F 66% 29.96 in 10.0 mi ENE 8.1 mph - 0.00 in Thunderstorm Thunderstorm
10:20 AM 73.4 °F - 60.8 °F 65% 29.99 in 10.0 mi ESE 8.1 mph - N/A   Mostly Cloudy
10:56 AM 73.0 °F - 60.1 °F 64% 29.94 in 10.0 mi ESE 11.5 mph - N/A   Scattered Clouds
11:56 AM 78.1 °F - 61.0 °F 56% 29.93 in 10.0 mi SE 12.7 mph 19.6 mph N/A   Partly Cloudy
12:56 PM 82.0 °F 82.1 °F 59.0 °F 45% 29.92 in 10.0 mi South 9.2 mph - N/A   Clear
1:56 PM 84.9 °F 83.9 °F 57.0 °F 38% 29.92 in 10.0 mi North 8.1 mph - N/A   Partly Cloudy
2:56 PM 82.0 °F 83.1 °F 63.0 °F 52% 29.93 in 10.0 mi North 12.7 mph - N/A   Partly Cloudy
3:56 PM 81.0 °F 82.7 °F 64.9 °F 58% 29.94 in 8.0 mi NNE 12.7 mph - N/A   Scattered Clouds
4:56 PM 79.0 °F - 64.9 °F 62% 29.94 in 10.0 mi North 11.5 mph - 0.00 in Rain Light Rain
5:56 PM 75.9 °F - 68.0 °F 76% 29.95 in 10.0 mi NNE 11.5 mph - 0.00 in   Mostly Cloudy
6:56 PM 75.0 °F - 66.0 °F 73% 29.96 in 10.0 mi North 10.4 mph - N/A   Mostly Cloudy
7:56 PM 75.0 °F - 64.9 °F 71% 29.97 in 10.0 mi North 9.2 mph - N/A   Mostly Cloudy
8:56 PM 71.6 °F - 62.6 °F 73% 30.01 in 10.0 mi North 8.1 mph - N/A   Scattered Clouds
9:56 PM 69.1 °F - 61.0 °F 75% 30.01 in 10.0 mi North 9.2 mph - N/A   Scattered Clouds
10:56 PM 66.0 °F - 61.0 °F 84% 30.03 in 10.0 mi North 6.9 mph - N/A   Scattered Clouds
11:56 PM 64.0 °F - 61.0 °F 90% 30.04 in 10.0 mi North 5.8 mph - N/A   Clear